CW8081 Weather Reports


time (UTC)temp
F
wind
direction
speed
knots
gust
knots
rain 1hr
in
rain 24hr
in
rain mn
in
humidity
%
barometer
mb
20260505211604 65 7 0.0 0.0 0.00 0.00 0.00 57 1013.9
20260505204605 66 0 0.0 0.0 0.00 0.00 0.00 49 1013.7
20260505201104 67 0 0.0 0.0 0.00 0.00 0.00 49 1013.1
20260505200604 67 0 0.0 0.0 0.00 0.00 0.00 49 1013.1
20260505194604 67 0 0.0 0.0 0.00 0.00 0.00 50 1013.1
20260505194104 67 0 0.0 0.0 0.00 0.00 0.00 50 1013.1
20260505193604 67 0 0.0 0.0 0.00 0.00 0.00 50 1013.1
20260505191604 68 20 0.0 0.0 0.00 0.00 0.00 50 1013.1
20260505191103 68 5 0.0 0.0 0.00 0.00 0.00 51 1012.7
20260505190104 68 0 0.0 0.0 0.00 0.00 0.00 51 1012.7
20260505184604 68 0 0.0 0.0 0.00 0.00 0.00 52 1012.7
20260505184104 68 0 0.0 0.0 0.00 0.00 0.00 52 1012.7
20260505183604 69 3 0.0 0.0 0.00 0.00 0.00 52 1012.7
20260505183104 69 0 0.0 0.0 0.00 0.00 0.00 52 1012.7
20260505181104 70 0 0.0 0.0 0.00 0.00 0.00 49 1012.4
20260505180104 71 0 0.0 0.0 0.00 0.00 0.00 47 1012.4
20260505174104 72 0 0.0 0.0 0.00 0.00 0.00 46 1012.2
20260505171604 74 0 0.0 0.0 0.00 0.00 0.00 43 1012.2
20260505171104 75 0 0.0 0.0 0.00 0.00 0.00 42 1012.2
20260505170105 75 0 0.0 0.0 0.00 0.00 0.00 42 1012.3
20260505161604 78 0 0.0 0.0 0.00 0.00 0.00 41 1012.2
20260505161104 78 0 0.0 0.0 0.00 0.00 0.00 41 1012.3
20260505160104 78 0 0.0 0.0 0.00 0.00 0.00 43 1012.3
20260505153104 79 359 0.0 0.0 0.00 0.00 0.00 44 1012.4
20260505150604 80 0 0.0 0.0 0.00 0.00 0.00 41 1012.7
20260505150104 80 347 0.0 0.0 0.00 0.00 0.00 40 1012.7
20260505140604 81 359 0.0 0.0 0.00 0.00 0.00 39 1012.7
20260505140104 81 0 0.0 0.0 0.00 0.00 0.00 41 1012.9
20260505121103 81 0 0.0 0.0 0.00 0.00 0.00 42 1013.6
20260505114604 80 348 0.0 0.0 0.00 0.00 0.00 39 1013.9
20260505113104 79 0 0.0 0.0 0.00 0.00 0.00 38 1014.0
20260505111104 80 0 0.0 0.0 0.00 0.00 0.00 36 1014.3
20260505110104 79 0 0.0 0.0 0.00 0.00 0.00 36 1014.3
20260505101603 76 0 0.0 0.0 0.00 0.00 0.00 45 1014.7
20260505101103 76 0 0.0 0.0 0.00 0.00 0.00 45 1014.7
20260505093104 73 0 0.0 0.0 0.00 0.00 0.00 52 1015.6
20260505084103 71 0 0.0 0.0 0.00 0.00 0.00 57 1015.6
20260505083604 71 0 0.0 0.0 0.00 0.00 0.00 56 1015.6
20260505081104 71 0 0.0 0.0 0.00 0.00 0.00 54 1015.6
20260505080604 70 0 0.0 0.0 0.00 0.00 0.00 55 1015.8
20260505074104 66 356 0.0 0.0 0.00 0.00 0.00 54 1015.8
20260505073103 65 265 0.0 0.0 0.00 0.00 0.00 63 1016.0
20260505071604 64 0 0.0 0.0 0.00 0.00 0.00 67 1016.0
20260505070104 66 0 0.0 0.0 0.00 0.00 0.00 64 1015.8
20260505064604 63 0 0.0 0.0 0.00 0.00 0.00 61 1015.8
20260505063103 62 358 0.0 0.0 0.00 0.00 0.00 74 1015.9
20260505061104 61 0 0.0 0.0 0.00 0.00 0.00 76 1016.0
20260505054104 59 0 0.0 0.0 0.00 0.00 0.00 76 1015.8
20260505051104 56 0 0.0 0.0 0.00 0.00 0.00 76 1015.8
20260505050604 56 0 0.0 0.9 0.00 0.00 0.00 76 1015.8
20260505031604 51 0 0.0 0.0 0.00 0.00 0.00 74 1015.8
20260505030604 51 0 0.0 0.0 0.00 0.00 0.00 74 1015.8
20260505030104 51 0 0.0 0.0 0.00 0.00 0.00 74 1015.8
20260505024604 51 0 0.0 0.0 0.00 0.00 0.00 73 1015.8
20260505024104 51 0 0.0 0.0 0.00 0.00 0.00 73 1015.8
20260505023604 51 0 0.0 0.0 0.00 0.00 0.00 73 1015.9
20260505020604 52 0 0.0 0.0 0.00 0.00 0.00 72 1015.9
20260505014104 52 0 0.0 0.0 0.00 0.00 0.00 70 1015.9
20260505013603 52 0 0.0 0.0 0.00 0.00 0.00 70 1015.9
20260505011104 53 0 0.0 0.0 0.00 0.00 0.00 69 1015.9
20260505010104 53 0 0.0 0.0 0.00 0.00 0.00 70 1015.9
20260505004603 53 0 0.0 0.0 0.00 0.00 0.00 70 1015.9
20260505000604 53 0 0.0 0.0 0.00 0.00 0.00 71 1015.9
20260505000104 53 0 0.0 0.0 0.00 0.00 0.00 71 1016.0
20260504234104 53 0 0.0 0.0 0.00 0.00 0.00 70 1016.1
20260504233104 53 0 0.0 0.0 0.00 0.00 0.00 70 1016.2
20260504231104 53 0 0.0 0.0 0.00 0.00 0.00 69 1016.3
20260504230604 53 0 0.0 0.0 0.00 0.00 0.00 69 1016.3
20260504224604 54 0 0.0 0.9 0.00 0.00 0.00 67 1016.3
20260504224104 54 0 0.0 0.9 0.00 0.00 0.00 67 1016.3
20260504223603 54 0 0.0 1.7 0.00 0.00 0.00 67 1016.3
20260504214604 55 0 0.0 0.0 0.00 0.00 0.00 67 1016.2
20260504214104 55 0 0.0 0.0 0.00 0.00 0.00 66 1016.2
20260504213604 55 0 0.0 0.0 0.00 0.00 0.00 66 1016.2